Des Moines, IA

11:58 AM CDT on May 26, 2017 (GMT -0500)
Des Moines International

Weather History for KDSM - January, 2013

Change the Weather History Date:

Thursday, January 17, 2013

  Actual Average Record
Temperature  
Mean Temperature 28 °F 22 °F  
Max Temperature 37 °F 31 °F 59 °F (1989)
Min Temperature 18 °F 14 °F -19 °F (1930)
Degree Days  
Heating Degree Days 37 43  
Month to date heating degree days 628 724  
Since 1 July heating degree days 2779 3191  
Cooling Degree Days 0 0  
Month to date cooling degree days 0 0  
Year to date cooling degree days 0 0  
Moisture  
Dew Point 15 °F    
Average Humidity 58    
Maximum Humidity 78    
Minimum Humidity 38    
Precipitation  
Precipitation 0.00 in 0.03 in 0.45 in (1996)
Month to date precipitation 0.12 0.54  
Year to date precipitation 0.12 0.54  
Snow  
Snow 0.00 in 0.30 in 6.00 in (1936)
Month to date snowfall 0.1 4.5  
Since 1 July snowfall 15.6 16.4  
Snow Depth 0.00 in    
Sea Level Pressure  
Sea Level Pressure 30.41 in    
Wind  
Wind Speed 6 mph (West)    
Max Wind Speed 16 mph    
Max Gust Speed 21 mph    
Visibility 10 miles    
Events      
T = Trace of Precipitation, MM = Missing Value Source: NWS Daily Summary

Daily Weather History Graph

Daily Weather History Graph

Search for Another Location

Airport or City:

Trip Planner

Search our weather history database for the weather conditions in past years. The results will help you decide how hot, cold, wet, or windy it might be!

Date:

Astronomy

Jan. 17, 2013 Rise Set
Actual Time 7:37 AM CST 5:12 PM CST
Civil Twilight 7:07 AM CST 5:42 PM CST
Nautical Twilight 6:33 AM CST 6:16 PM CST
Astronomical Twilight 6:00 AM CST 6:49 PM CST
Moon 10:39 AM CST (1/17) No Moon Set
Length of Visible Light 10h 35m
Length of Day
9h 34m
Waxing Crescent, 38% of the Moon is Illuminated
Jan 17
Waxing Crescent
Jan 18
First Quarter
Jan 26
Full
Feb 3
Last Quarter
Feb 10
New

Hourly Weather History & Observations

Time (CST) Temp. Windchill Dew Point Humidity Pressure Visibility Wind Dir Wind Speed Gust Speed Precip Events Conditions
12:54 AM 28.9 °F 20.4 °F 23.0 °F 78% 30.24 in 10.0 mi North 9.2 mph - N/A   Clear
1:54 AM 28.0 °F 17.5 °F 21.9 °F 78% 30.28 in 10.0 mi North 12.7 mph - N/A   Partly Cloudy
2:54 AM 26.1 °F 16.2 °F 19.9 °F 78% 30.31 in 10.0 mi North 10.4 mph - N/A   Clear
3:54 AM 24.1 °F 16.0 °F 17.1 °F 75% 30.33 in 10.0 mi North 6.9 mph - N/A   Clear
4:54 AM 21.0 °F 14.6 °F 15.1 °F 78% 30.36 in 10.0 mi North 4.6 mph - N/A   Clear
5:54 AM 19.9 °F 7.9 °F 12.0 °F 71% 30.41 in 10.0 mi NNW 11.5 mph - N/A   Clear
6:54 AM 18.0 °F 9.8 °F 9.0 °F 68% 30.43 in 10.0 mi NW 5.8 mph - N/A   Clear
7:54 AM 18.0 °F 12.7 °F 8.1 °F 65% 30.44 in 10.0 mi NNW 3.5 mph - N/A   Partly Cloudy
8:54 AM 19.9 °F - 10.0 °F 65% 30.47 in 10.0 mi Calm Calm - N/A   Partly Cloudy
9:54 AM 21.0 °F 12.4 °F 10.0 °F 63% 30.50 in 10.0 mi West 6.9 mph - N/A   Overcast
10:54 AM 25.0 °F 17.1 °F 10.9 °F 55% 30.49 in 10.0 mi Variable 6.9 mph - N/A   Overcast
11:54 AM 27.0 °F 21.6 °F 10.9 °F 51% 30.48 in 10.0 mi WNW 4.6 mph - N/A   Mostly Cloudy
12:54 PM 30.0 °F - 9.0 °F 41% 30.45 in 10.0 mi Calm Calm - N/A   Partly Cloudy
1:54 PM 34.0 °F 31.0 °F 10.9 °F 38% 30.43 in 10.0 mi Variable 3.5 mph - N/A   Partly Cloudy
2:54 PM 36.0 °F 29.6 °F 14.0 °F 41% 30.43 in 10.0 mi WSW 8.1 mph - N/A   Partly Cloudy
3:54 PM 36.0 °F 30.3 °F 17.1 °F 46% 30.43 in 10.0 mi West 6.9 mph - N/A   Partly Cloudy
4:54 PM 35.1 °F 31.0 °F 18.0 °F 50% 30.44 in 10.0 mi SW 4.6 mph - N/A   Partly Cloudy
5:54 PM 30.9 °F 26.2 °F 17.1 °F 57% 30.44 in 10.0 mi South 4.6 mph - N/A   Partly Cloudy
6:54 PM 28.9 °F 21.9 °F 17.1 °F 61% 30.43 in 10.0 mi South 6.9 mph - N/A   Clear
7:54 PM 28.0 °F 21.7 °F 18.0 °F 66% 30.43 in 10.0 mi SSE 5.8 mph - N/A   Clear
8:54 PM 30.0 °F 25.2 °F 18.0 °F 61% 30.42 in 10.0 mi SSE 4.6 mph - N/A   Clear
9:54 PM 30.0 °F 26.5 °F 18.0 °F 61% 30.41 in 10.0 mi SSE 3.5 mph - N/A   Clear
10:54 PM 28.0 °F 21.7 °F 18.0 °F 66% 30.40 in 10.0 mi SE 5.8 mph - N/A   Clear
11:54 PM 26.1 °F 17.6 °F 18.0 °F 71% 30.38 in 10.0 mi SSE 8.1 mph - N/A   Clear